049  
ASUS43 KIND 210509  
RWRIN  
 
WEATHER ROUNDUP FOR INDIANA  
NATIONAL WEATHER SERVICE INDIANAPOLIS IN  
100 AM EDT SAT APR 21 2018  
 
NOTE: "FAIR" INDICATES FEW OR NO CLOUDS BELOW 12,000 FEET WITH NO  
SIGNIFICANT WEATHER AND/OR S TO VISIBILITY
.  
 
* - STATION DOES NOT REPORT WEATHER SUCH AS PRECIPITATION OR FOG.
 
 
+ - STATION NOT QUALITY CONTROLLED BY THE NATIONAL WEATHER SERVICE.  
USE DATA WITH CAUTION...ESPECIALLY DEWPOINT AND RELATIVE  
HUMIDITY OBSERVATIONS.  
 
INZ001>003-010>013-019-020-210600-  
NORTHWEST INDIANA  
 
CITY SKY/WX TMP DP RH WIND PRES REMARKS
 
GARY /AIRPORT/ FAIR 35 27 70 CALM 30.46R  
KNOX *+ FAIR 36 21 55 NE3 30.45R  
LA PORTE + FAIR 34 20 56 N3 30.45S  
MICHIGAN CITY+ FAIR 32 25 74 CALM 30.46R  
MONTICELLO + FAIR 43 20 39 NE5 30.43R  
RENSSELAER + FAIR 39 14 35 NE7 30.44S WCI 34  
VALPARAISO FAIR 40 14 34 NE3 30.45R  
 

 
 
LMZ046-743>745-210600-  
SOUTHERN LAKE MICHIGAN  
 
STATION/POSITION TIME TEMP WIND PRES WAVE
 
AIR SEA DIR/SP/G HT  
(UTC) (F) (DEG/KT/KT) (MB) (FT)  
BURNS HARBOR 0440 43 80/ 6/ 6 1031.2S  
MICHIGAN CITY 0440 43 70/ 8/ 9 N/A  
 

 
 
INZ004-005-014>016-021>024-210600-  
NORTH CENTRAL INDIANA  
 
CITY SKY/WX TMP DP RH WIND PRES REMARKS
 
GOSHEN FAIR 38 28 67 VRB3 30.44S  
LOGANSPORT + FAIR 43 27 52 N5 30.44S  
PERU/GRISSOM FAIR N/A N/A N/A NE8 N/A  
ROCHESTER + FAIR 43 27 52 CALM 30.44S  
SOUTH BEND FAIR 36 17 46 N3 30.45S  
WARSAW + FAIR 39 28 65 CALM 30.44S  
 

 
 
INZ006>009-017-018-025>027-210600-  
NORTHEAST INDIANA  
 
CITY SKY/WX TMP DP RH WIND PRES REMARKS
 
ANGOLA *+ FAIR 37 32 81 CALM 30.43S  
AUBURN + FAIR 34 27 75 CALM 30.44R  
FORT WAYNE FAIR 39 30 70 CALM 30.43S  
HUNTINGTON + FAIR 39 26 59 CALM 30.42F  
 

 
 
INZ028-029-035-036-043>045-051>053-210600-  
WEST CENTRAL INDIANA  
 
CITY SKY/WX TMP DP RH WIND PRES REMARKS
 
CRAWFORDSVL + FAIR 39 29 69 CALM 30.41S  
GREENCASTLE + FAIR 43 25 49 CALM 30.42R  
LAFAYETTE FAIR 44 23 43 NE5 30.43R  
TERRE HAUTE FAIR 40 31 70 NE3 30.40S  
 

 
 
INZ030>032-037>040-046>048-054>057-064-065-210600-  
CENTRAL INDIANA  
 
CITY SKY/WX TMP DP RH WIND PRES REMARKS
 
FISHERS *+ FAIR 37 32 81 CALM 30.42S  
FRANKFORT + FAIR 40 30 66 E3 30.44R  
GREENWOOD *+ FAIR 43 25 48 E5 30.42S  
INDIANAPOLIS FAIR 47 24 40 E7 30.41S  
-EAGLE CREEK FAIR 44 27 51 CALM 30.41S  
KOKOMO + FAIR 38 31 76 CALM 30.43S  
MARION + FAIR 40 27 60 CALM 30.43S  
MT COMFORT *+ FAIR 39 32 75 E5 30.42S WCI 36  
SHELBYVILLE FAIR 41 28 60 E6 30.41R  
ZIONSVILLE + FAIR 36 30 79 CALM 30.42S  
 

 
 
INZ033-034-041-042-049-050-058-059-210600-  
EAST CENTRAL INDIANA  
 
CITY SKY/WX TMP DP RH WIND PRES REMARKS
 
MUNCIE FAIR 42 25 50 CALM 30.42S  
RICHMOND + FAIR 37 28 70 E8 30.43S WCI 31  
 

 
 
INZ060-061-067>069-081>083-085>088-210600-  
SOUTHWEST INDIANA  
 
CITY SKY/WX TMP DP RH WIND PRES REMARKS
 
EVANSVILLE FAIR 48 32 53 NE9 30.37S  
HUNTINGBURG + FAIR 49 28 44 NE7 30.38S  
WASHINGTON + FAIR 47 26 45 CALM 30.39R  
 

 
 
INZ062-063-066-070>080-084-089>092-210600-  
SOUTH CENTRAL AND SOUTHEAST INDIANA  
 
CITY SKY/WX TMP DP RH WIND PRES REMARKS
 
BATESVILLE + CLEAR 41 25 52 MISG 30.41S  
BEDFORD + FAIR 48 21 34 NE6 30.38F  
BLOOMINGTON FAIR 39 28 64 CALM 30.40S  
FRENCH LICK *+ FAIR 46 19 34 NE6 30.38S  
MADISON *+ FAIR 43 27 52 CALM 30.42R  
NORTH VERNON + FAIR 43 28 56 NE3 30.41S  
SEYMOUR + FAIR 43 28 56 NE3 30.40S  
 

 
 
 
 
CLICK HERE TO GO TO PREVIOUS BULLETINS.

The Nexlab IN Page Main Text Page